SCP
0 -0 -0 -0 0 0 0 0 0 0 -0 0 -0 -0 -0 -0 -0 -0 0 0 0 0 0 0 0 0 0 0 0 0 0 0 0 0 0 0 0 0 0 0 0 0 0 0
0 0 0 -0 -0 0 0 -0 -0 0 -0 0 -0 0 0 -0 -0 -0 -0 0 0 0 0 0 0 0 0 0 0 0 0 0 0 0 0 0 0 0 0 0 0 0 0 0
0 0 0 0 -0 -0 0 0 0 0 0 0 0 -0 -0 0 0 0 0 0 0 0 0 0 0 0 0 0 0 0 0 0 0 0 0 0 0 0 0 0 0 0 0 0
0 -0 0 0 -0 0 -0 -0 0 -0 0 0 0 0 0 0 0 0 0 0 0 0 0 0 0 0 0 0 0 0 0 0 0 0 0 0 0 0 0 0 0 0 0 0
0 -0 -0 0 -0 0 -0 0 -0 -0 0 0 0 0 0 0 0 0 0 0 0 0 0 0 0 0 0 0 0 0 0 0 0 0 0 0 0 0 0 0 0 0 0 0
0 -0 -0 0 -0 0 -0 0 -0 -0 0 0 0 0 0 0 0 0 0 0 0 0 0 0 0 0 0 0 0 0 0 0 0 0 0 0 0 0 0 0 0 0 0 0
0 -0 -0 -0 -0 -0 -0 -0 -0 0 0 0 0 0 0 0 0 0 0 0 0 0 0 0 0 0 0 0 0 0 0 0 0 0 0 0 0 0 0 0 0 0 0 0
0 0 -0 0 -0 -0 -0 -0 -0 -0 -0 0 0 0 0 0 0 0 0 0 0 0 0 0 0 0 0 0 0 0 0 0 0 0 0 0 0 0 0 0 0 0 0 0
0 0 -0 -0 -0 -0 -0 -0 -0 -0 -0 -0 0 0 0 0 0 0 0 0 0 0 0 0 0 0 0 0 0 0 0 0 0 0 0 0 0 0 0 0 0 0 0 0
0 0 0 0 -0 -0 -0 -0 -0 -0 -0 -0 -0 0 0 0 0 0 0 0 0 0 0 0 0 0 0 0 0 0 0 0 0 0 0 0 0 0 0 0 0 0 0 0
0 0 0 0 0 0 -0 -0 -0 -0 -0 -0 -0 -0 -0 0 0 0 0 0 0 0 0 0 0 0 0 0 0 0 0 0 0 0 0 0 0 0 0 0 0 0 0 0
0 0 0 0 0 -0 -0 -0 -0 -0 -0 -0 -0 -0 -0 -0 -0 0 0 0 0 0 0 0 0 0 0 0 0 0 0 0 0 0 0 0 0 0 0 0 0 0 0 0
0 0 0 0 0 0 0 -0 -0 -0 -0 -0 -0 -0 -0 -0 -0 -0 -0 0 0 0 0 0 0 0 0 0 0 0 0 0 0 0 0 0 0 0 0 0 0 0 0 0
0 0 0 0 0 0 0 0 0 0 -0 -0 -0 -0 -0 -0 -0 -0 -0 -0 -0 0 0 0 0 0 0 0 0 0 0 0 0 0 0 0 0 0 0 0 0 0 0 0
0 0 0 0 0 0 0 0 0 0 0 -0 -0 -0 -0 -0 -0 -0 -0 -0 -0 -0 0 0 0 0 0 0 0 0 0 0 0 0 0 0 0 0 0 0 0 0 0 0
0 0 0 0 0 0 0 0 0 0 0 0 -0 0 0 0 -0 -0 -0 -0 -0 -0 -0 0 0 0 0 0 0 0 0 0 0 0 0 0 0 0 0 0 0 0 0 0
0 0 0 0 0 0 0 0 0 0 0 0 0 0 0 0 0 -0 -0 -0 -0 -0 0 0 0 0 0 0 0 0 0 0 0 0 0 0 0 0 0 0 0 0 0 0
0 0 0 0 0 0 0 0 0 0 0 0 0 0 0 0 -0 -0 -0 -0 0 0 0 0 0 0 0 0 0 0 0 0 0 0 0 0 0 0 0 0 0 0 0 0
0 0 0 0 0 0 0 0 0 0 0 0 0 0 -0 -0 -0 -0 -0 -0 -0 0 0 0 0 0 0 0 0 0 0 0 0 0 0 0 0 0 0 0 0 0 0 0
0 0 0 0 0 0 0 0 0 0 0 0 0 0 0 0 -0 -0 -0 -0 -0 0 0 0 0 0 0 0 0 0 0 0 0 0 0 0 0 0 0 0 0 0 0 0
0 0 0 0 0 0 0 0 0 0 0 0 0 0 0 0 0 0 -0 -0 0 0 0 0 0 0 0 0 0 0 0 0 0 0 0 0 0 0 0 0 0 0 0 0
0 0 0 0 0 0 0 0 0 0 0 0 0 0 0 0 0 0 0 0 0 0 0 0 0 0 0 0 0 0 0 0 0 0 0 0 0 0 0 0 0 0 0 0
0 0 0 0 0 0 0 0 0 0 0 0 0 0 0 0 0 0 0 0 0 0 0 0 0 0 0 0 0 0 0 0 0 0 0 0 0 0 0 0 0 0 0 0
0 0 0 0 0 0 0 0 0 0 0 0 0 0 0 0 0 0 0 0 0 0 0 0 0 0 0 0 0 0 0 0 0 0 0 0 0 0 0 0 0 0 0 0
0 0 0 0 0 0 0 0 0 0 0 0 0 0 0 0 0 0 0 0 0 0 0 0 0 0 0 0 0 0 0 0 0 0 0 0 0 0 0 0 0 0 0 0
0 0 0 0 0 0 0 0 0 0 0 0 0 0 0 0 0 0 0 0 0 0 0 0 0 0 0 0 0 0 0 0 0 0 0 0 0 0 0 0 0 0 0 0
0 0 0 0 0 0 0 0 0 0 0 0 0 0 0 0 0 0 0 0 0 0 0 0 0 0 0 0 0 0 0 0 0 0 0 0 0 0 0 0 0 0 0 0
Wind_Speed_500mb
32 41 47 46 48 51 38 37 20 32 28 44 21 15 9 20 21 21 22 15 14 16 29 43 59 67 77 85 92 97 100 101 99 94 93 93 93 89 83 80 74 70 69 65
43 34 32 40 52 36 33 25 19 32 38 7 11 21 31 40 32 24 19 11 16 14 25 38 48 58 69 77 84 91 95 96 92 94 95 92 93 91 85 80 75 73 71 69
17 24 36 15 23 31 33 26 33 29 26 10 6 27 23 35 39 39 31 17 12 20 21 32 41 53 63 69 76 82 86 89 92 94 93 92 91 90 89 85 79 76 72 69
12 13 7 9 34 25 23 26 45 46 45 8 30 46 44 52 42 37 34 28 12 7 19 27 32 42 51 59 67 72 75 82 88 91 92 91 92 93 91 86 82 77 73 70
3 6 21 29 4 16 24 21 41 46 51 17 23 24 46 63 44 37 35 32 22 14 5 22 28 35 47 58 61 65 71 77 79 88 92 90 95 97 93 88 82 77 72 70
7 12 11 12 34 49 18 3 38 40 47 43 32 15 13 50 60 60 48 37 27 19 17 8 15 26 37 51 54 63 65 67 73 82 85 88 93 97 94 87 80 74 71 69
16 11 16 15 23 30 10 11 29 26 44 50 21 20 28 42 54 62 65 63 43 23 21 13 9 14 30 44 50 53 58 59 67 76 80 83 90 94 91 85 79 75 71 69
2 1 14 6 14 14 7 12 17 15 20 30 48 54 51 46 54 55 66 68 65 53 37 19 13 12 20 32 43 43 49 52 60 69 74 81 87 90 87 83 79 75 72 68
16 12 15 50 40 32 18 15 14 18 21 20 18 23 48 53 46 53 59 62 61 61 54 43 23 14 12 22 29 37 41 41 50 58 64 73 81 86 84 80 77 75 73 71
3 37 35 48 36 35 47 3 5 13 19 21 26 26 31 34 40 41 47 59 57 56 57 54 46 28 13 14 21 30 36 38 43 51 58 64 71 77 79 79 77 75 75 73
21 37 48 49 59 62 49 15 9 11 15 18 25 30 30 32 27 34 35 42 49 49 50 50 45 44 31 16 11 25 32 36 40 45 51 57 63 71 73 72 71 72 71 70
23 53 27 29 24 24 23 17 8 8 10 13 24 29 33 30 27 27 29 19 32 42 42 44 42 40 39 29 17 10 25 35 36 40 43 47 53 58 61 62 63 61 59 59
54 76 57 60 40 33 29 26 19 14 11 17 25 27 31 34 31 29 27 28 21 24 35 36 34 35 32 30 24 17 12 18 29 37 39 40 44 50 58 59 55 56 56 54
78 68 47 62 57 45 33 28 34 27 23 22 24 23 25 33 29 24 25 28 27 23 22 29 29 29 29 26 25 18 17 15 15 21 31 37 41 44 46 50 54 56 57 57
67 71 74 73 64 49 44 39 32 32 33 34 34 24 22 24 27 24 24 24 27 27 24 22 25 21 20 19 19 18 14 12 13 13 18 26 33 39 43 46 48 52 56 57
70 67 71 77 77 70 53 48 43 39 39 40 37 31 23 22 28 27 26 26 25 28 30 25 20 20 14 13 12 13 11 7 4 6 8 11 22 32 38 42 47 49 52 55
52 49 65 71 76 76 70 63 52 47 41 41 41 35 32 27 27 32 30 29 27 23 27 26 25 22 20 14 15 12 12 9 7 6 4 5 8 11 19 31 39 46 51 50
71 72 75 76 74 76 73 70 65 57 47 43 43 43 41 39 37 42 45 40 33 24 19 23 24 23 20 21 15 17 15 15 13 12 11 11 9 9 11 15 21 32 41 48
63 68 74 78 74 73 75 71 61 54 50 50 50 50 48 47 45 48 49 50 39 29 19 21 26 25 21 19 23 19 19 19 20 20 19 18 19 17 15 12 13 18 23 33
61 64 68 70 72 71 71 68 57 50 48 50 54 52 53 52 54 52 52 56 47 36 33 32 31 31 26 23 22 22 23 22 25 28 28 27 26 26 25 23 20 17 18 21
56 59 55 50 45 41 40 41 42 42 46 50 53 55 57 52 50 51 54 57 41 34 36 38 36 32 31 28 26 24 24 25 27 31 35 34 34 33 31 31 31 30 28 25
36 39 39 37 35 35 36 39 41 42 43 47 50 49 50 45 43 46 46 42 32 35 36 39 38 38 36 34 33 29 28 30 30 30 36 41 40 39 37 36 35 34 35 35
17 22 25 27 28 29 30 31 33 36 36 37 38 39 41 40 44 46 37 30 38 36 38 34 33 36 40 39 41 36 30 32 33 33 35 40 43 43 42 41 40 40 39 39
7 11 15 19 22 22 23 25 27 29 31 32 33 34 35 37 44 39 37 38 39 41 41 38 38 40 40 40 44 46 42 38 35 34 37 39 43 46 46 43 42 43 44 42
11 9 10 12 13 14 15 19 22 26 30 32 32 32 35 39 44 38 38 40 40 42 44 40 42 44 44 45 46 50 51 48 45 42 37 41 45 46 48 49 49 48 45 43
18 13 12 12 13 15 18 19 21 24 26 30 31 34 38 41 43 45 46 44 45 43 44 42 44 47 51 52 52 51 51 54 54 51 45 44 43 46 49 50 51 48 47 44
20 16 13 14 17 17 19 22 25 25 26 31 34 33 35 37 39 44 49 50 49 47 47 46 44 46 51 54 56 59 58 56 57 58 56 52 49 45 44 46 49 50 47 43
Wind_Direction_500mb
271 278 287 283 294 300 296 272 255 284 221 257 311 316 315 356 337 314 316 292 260 218 194 194 196 198 203 205 205 207 207 208 210 208 209 206 202 200 198 198 197 197 195 193
293 291 290 298 298 292 281 301 247 271 242 214 175 41 13 30 357 350 335 301 264 214 196 194 196 198 200 201 203 204 205 207 207 206 207 205 201 199 196 195 195 196 195 194
273 299 312 296 351 315 334 311 339 336 256 179 342 64 33 23 20 14 18 339 287 234 193 188 189 192 195 196 197 200 204 205 206 206 205 202 200 197 195 194 194 195 196 195
270 342 316 251 319 279 314 7 354 345 342 307 97 65 31 45 22 22 25 22 345 313 205 202 195 194 199 199 203 204 205 205 203 202 203 200 197 196 195 195 195 195 195 195
244 218 285 298 308 328 332 347 357 347 353 18 97 66 1 39 31 27 36 44 43 30 47 199 193 194 197 199 203 202 201 203 203 201 200 198 196 195 195 194 194 196 196 195
341 280 255 277 335 322 302 207 351 1 357 6 71 73 10 22 37 43 41 43 51 67 74 129 178 186 193 195 196 199 200 200 201 201 200 199 196 195 195 196 195 195 196 198
249 261 277 276 320 343 35 326 320 358 10 11 19 32 360 27 30 41 44 46 48 61 70 78 98 167 189 195 196 196 199 199 201 200 200 200 197 196 194 195 195 196 197 197
32 207 282 346 333 12 273 288 303 16 13 23 17 21 16 28 32 27 31 38 44 47 52 57 80 114 170 190 193 193 196 198 201 199 198 199 197 196 196 196 196 196 197 197
196 223 282 297 305 299 321 301 335 16 18 3 358 8 18 18 13 11 26 33 36 42 50 53 68 97 142 171 185 193 194 194 195 196 199 200 198 197 196 197 198 197 197 199
74 259 264 272 280 283 310 276 342 341 354 353 359 4 9 16 357 8 4 23 28 31 40 45 45 56 94 150 169 184 187 189 187 192 194 199 201 200 198 198 199 200 200 201
250 266 275 272 272 280 277 236 321 329 340 337 347 355 355 346 356 1 7 360 12 26 29 36 39 44 54 77 137 172 178 180 184 188 192 194 200 202 203 204 207 204 206 207
242 249 221 250 280 270 217 263 285 316 338 343 334 338 341 344 346 343 349 359 348 356 19 25 28 36 42 51 75 144 174 176 181 184 189 193 195 198 204 208 208 210 216 216
241 250 249 260 269 243 234 272 288 298 297 330 333 321 326 336 335 330 333 338 346 342 339 12 20 27 33 33 49 71 129 168 180 187 192 194 195 199 199 202 206 210 210 216
240 248 251 250 249 253 244 265 284 295 294 311 324 309 318 329 336 331 327 325 333 337 337 332 4 12 15 24 28 44 70 99 142 181 196 198 201 203 205 210 207 203 204 207
245 242 241 253 258 256 256 258 264 286 291 295 306 295 299 323 336 341 328 323 320 317 319 325 333 351 355 2 11 22 39 67 85 127 172 195 205 207 208 209 212 212 211 210
238 241 245 245 251 255 249 249 256 275 280 287 291 288 284 308 322 333 322 315 310 306 304 311 312 312 324 332 343 347 5 8 36 91 122 160 190 203 207 210 211 212 215 214
225 225 237 238 241 245 251 260 261 270 271 276 282 279 276 283 299 312 312 312 304 291 290 293 293 293 298 303 306 315 314 315 313 295 256 183 173 183 203 208 210 211 214 214
239 238 234 236 238 248 252 253 259 265 262 270 272 274 276 282 292 299 298 294 300 288 275 266 268 276 280 286 279 279 284 287 284 274 270 248 226 200 190 200 206 210 210 210
236 236 238 239 242 249 250 250 256 260 262 266 269 269 274 279 287 289 284 282 287 293 271 261 256 253 257 266 279 278 262 258 264 262 255 249 240 227 221 216 203 204 209 208
232 232 235 236 238 239 243 247 251 251 252 260 263 266 271 278 281 281 275 274 277 285 276 270 261 260 258 263 268 273 279 263 247 246 243 244 242 238 232 222 221 223 216 212
226 227 225 224 225 228 232 234 238 241 245 250 256 263 269 273 275 274 274 272 276 271 264 264 259 256 257 251 253 263 264 261 255 250 248 244 241 238 234 230 226 227 230 228
222 223 227 231 233 234 235 238 243 246 248 251 256 262 265 265 264 263 267 279 274 265 255 257 260 253 251 249 246 251 257 257 259 253 246 243 240 240 241 242 243 240 231 230
230 222 221 223 228 236 241 242 244 248 250 254 257 258 262 266 267 268 264 261 261 260 257 256 257 253 247 246 247 250 254 253 252 255 255 252 244 242 241 241 242 244 245 244
260 226 217 219 221 220 225 232 239 244 248 253 254 257 261 263 266 272 266 256 254 259 259 258 257 255 250 245 244 247 252 251 247 249 252 250 249 248 247 244 243 244 246 245
283 262 245 234 231 239 244 247 251 252 254 260 262 265 267 269 272 271 267 264 261 257 258 257 256 254 252 254 253 246 244 249 254 252 253 255 247 246 245 243 239 238 242 244
287 278 276 276 266 259 261 260 260 262 263 263 263 265 266 267 270 273 273 269 266 264 265 261 256 253 251 248 248 251 249 246 247 252 249 249 248 246 245 243 242 238 238 240
294 292 284 280 279 280 280 279 280 280 281 281 277 273 271 270 272 272 274 274 273 272 271 266 259 254 251 249 246 245 245 250 250 246 248 252 254 250 248 246 245 242 240 237
Wind_Speed_850mb
32 41 47 46 48 51 38 37 20 32 28 44 21 15 9 20 21 21 22 15 14 16 29 43 59 67 77 85 92 97 100 101 99 94 93 93 93 89 83 80 74 70 69 65
43 34 32 40 52 36 33 25 19 32 38 7 11 21 31 40 32 24 19 11 16 14 25 38 48 58 69 77 84 91 95 96 92 94 95 92 93 91 85 80 75 73 71 69
17 24 36 15 23 31 33 26 33 29 26 10 6 27 23 35 39 39 31 17 12 20 21 32 41 53 63 69 76 82 86 89 92 94 93 92 91 90 89 85 79 76 72 69
12 13 7 9 34 25 23 26 45 46 45 8 30 46 44 52 42 37 34 28 12 7 19 27 32 42 51 59 67 72 75 82 88 91 92 91 92 93 91 86 82 77 73 70
3 6 21 29 4 16 24 21 41 46 51 17 23 24 46 63 44 37 35 32 22 14 5 22 28 35 47 58 61 65 71 77 79 88 92 90 95 97 93 88 82 77 72 70
7 12 11 12 34 49 18 3 38 40 47 43 32 15 13 50 60 60 48 37 27 19 17 8 15 26 37 51 54 63 65 67 73 82 85 88 93 97 94 87 80 74 71 69
16 11 16 15 23 30 10 11 29 26 44 50 21 20 28 42 54 62 65 63 43 23 21 13 9 14 30 44 50 53 58 59 67 76 80 83 90 94 91 85 79 75 71 69
2 1 14 6 14 14 7 12 17 15 20 30 48 54 51 46 54 55 66 68 65 53 37 19 13 12 20 32 43 43 49 52 60 69 74 81 87 90 87 83 79 75 72 68
16 12 15 50 40 32 18 15 14 18 21 20 18 23 48 53 46 53 59 62 61 61 54 43 23 14 12 22 29 37 41 41 50 58 64 73 81 86 84 80 77 75 73 71
3 37 35 48 36 35 47 3 5 13 19 21 26 26 31 34 40 41 47 59 57 56 57 54 46 28 13 14 21 30 36 38 43 51 58 64 71 77 79 79 77 75 75 73
21 37 48 49 59 62 49 15 9 11 15 18 25 30 30 32 27 34 35 42 49 49 50 50 45 44 31 16 11 25 32 36 40 45 51 57 63 71 73 72 71 72 71 70
23 53 27 29 24 24 23 17 8 8 10 13 24 29 33 30 27 27 29 19 32 42 42 44 42 40 39 29 17 10 25 35 36 40 43 47 53 58 61 62 63 61 59 59
54 76 57 60 40 33 29 26 19 14 11 17 25 27 31 34 31 29 27 28 21 24 35 36 34 35 32 30 24 17 12 18 29 37 39 40 44 50 58 59 55 56 56 54
78 68 47 62 57 45 33 28 34 27 23 22 24 23 25 33 29 24 25 28 27 23 22 29 29 29 29 26 25 18 17 15 15 21 31 37 41 44 46 50 54 56 57 57
67 71 74 73 64 49 44 39 32 32 33 34 34 24 22 24 27 24 24 24 27 27 24 22 25 21 20 19 19 18 14 12 13 13 18 26 33 39 43 46 48 52 56 57
70 67 71 77 77 70 53 48 43 39 39 40 37 31 23 22 28 27 26 26 25 28 30 25 20 20 14 13 12 13 11 7 4 6 8 11 22 32 38 42 47 49 52 55
52 49 65 71 76 76 70 63 52 47 41 41 41 35 32 27 27 32 30 29 27 23 27 26 25 22 20 14 15 12 12 9 7 6 4 5 8 11 19 31 39 46 51 50
71 72 75 76 74 76 73 70 65 57 47 43 43 43 41 39 37 42 45 40 33 24 19 23 24 23 20 21 15 17 15 15 13 12 11 11 9 9 11 15 21 32 41 48
63 68 74 78 74 73 75 71 61 54 50 50 50 50 48 47 45 48 49 50 39 29 19 21 26 25 21 19 23 19 19 19 20 20 19 18 19 17 15 12 13 18 23 33
61 64 68 70 72 71 71 68 57 50 48 50 54 52 53 52 54 52 52 56 47 36 33 32 31 31 26 23 22 22 23 22 25 28 28 27 26 26 25 23 20 17 18 21
56 59 55 50 45 41 40 41 42 42 46 50 53 55 57 52 50 51 54 57 41 34 36 38 36 32 31 28 26 24 24 25 27 31 35 34 34 33 31 31 31 30 28 25
36 39 39 37 35 35 36 39 41 42 43 47 50 49 50 45 43 46 46 42 32 35 36 39 38 38 36 34 33 29 28 30 30 30 36 41 40 39 37 36 35 34 35 35
17 22 25 27 28 29 30 31 33 36 36 37 38 39 41 40 44 46 37 30 38 36 38 34 33 36 40 39 41 36 30 32 33 33 35 40 43 43 42 41 40 40 39 39
7 11 15 19 22 22 23 25 27 29 31 32 33 34 35 37 44 39 37 38 39 41 41 38 38 40 40 40 44 46 42 38 35 34 37 39 43 46 46 43 42 43 44 42
11 9 10 12 13 14 15 19 22 26 30 32 32 32 35 39 44 38 38 40 40 42 44 40 42 44 44 45 46 50 51 48 45 42 37 41 45 46 48 49 49 48 45 43
18 13 12 12 13 15 18 19 21 24 26 30 31 34 38 41 43 45 46 44 45 43 44 42 44 47 51 52 52 51 51 54 54 51 45 44 43 46 49 50 51 48 47 44
20 16 13 14 17 17 19 22 25 25 26 31 34 33 35 37 39 44 49 50 49 47 47 46 44 46 51 54 56 59 58 56 57 58 56 52 49 45 44 46 49 50 47 43
Wind_Direction_850mb
271 278 287 283 294 300 296 272 255 284 221 257 311 316 315 356 337 314 316 292 260 218 194 194 196 198 203 205 205 207 207 208 210 208 209 206 202 200 198 198 197 197 195 193
293 291 290 298 298 292 281 301 247 271 242 214 175 41 13 30 357 350 335 301 264 214 196 194 196 198 200 201 203 204 205 207 207 206 207 205 201 199 196 195 195 196 195 194
273 299 312 296 351 315 334 311 339 336 256 179 342 64 33 23 20 14 18 339 287 234 193 188 189 192 195 196 197 200 204 205 206 206 205 202 200 197 195 194 194 195 196 195
270 342 316 251 319 279 314 7 354 345 342 307 97 65 31 45 22 22 25 22 345 313 205 202 195 194 199 199 203 204 205 205 203 202 203 200 197 196 195 195 195 195 195 195
244 218 285 298 308 328 332 347 357 347 353 18 97 66 1 39 31 27 36 44 43 30 47 199 193 194 197 199 203 202 201 203 203 201 200 198 196 195 195 194 194 196 196 195
341 280 255 277 335 322 302 207 351 1 357 6 71 73 10 22 37 43 41 43 51 67 74 129 178 186 193 195 196 199 200 200 201 201 200 199 196 195 195 196 195 195 196 198
249 261 277 276 320 343 35 326 320 358 10 11 19 32 360 27 30 41 44 46 48 61 70 78 98 167 189 195 196 196 199 199 201 200 200 200 197 196 194 195 195 196 197 197
32 207 282 346 333 12 273 288 303 16 13 23 17 21 16 28 32 27 31 38 44 47 52 57 80 114 170 190 193 193 196 198 201 199 198 199 197 196 196 196 196 196 197 197
196 223 282 297 305 299 321 301 335 16 18 3 358 8 18 18 13 11 26 33 36 42 50 53 68 97 142 171 185 193 194 194 195 196 199 200 198 197 196 197 198 197 197 199
74 259 264 272 280 283 310 276 342 341 354 353 359 4 9 16 357 8 4 23 28 31 40 45 45 56 94 150 169 184 187 189 187 192 194 199 201 200 198 198 199 200 200 201
250 266 275 272 272 280 277 236 321 329 340 337 347 355 355 346 356 1 7 360 12 26 29 36 39 44 54 77 137 172 178 180 184 188 192 194 200 202 203 204 207 204 206 207
242 249 221 250 280 270 217 263 285 316 338 343 334 338 341 344 346 343 349 359 348 356 19 25 28 36 42 51 75 144 174 176 181 184 189 193 195 198 204 208 208 210 216 216
241 250 249 260 269 243 234 272 288 298 297 330 333 321 326 336 335 330 333 338 346 342 339 12 20 27 33 33 49 71 129 168 180 187 192 194 195 199 199 202 206 210 210 216
240 248 251 250 249 253 244 265 284 295 294 311 324 309 318 329 336 331 327 325 333 337 337 332 4 12 15 24 28 44 70 99 142 181 196 198 201 203 205 210 207 203 204 207
245 242 241 253 258 256 256 258 264 286 291 295 306 295 299 323 336 341 328 323 320 317 319 325 333 351 355 2 11 22 39 67 85 127 172 195 205 207 208 209 212 212 211 210
238 241 245 245 251 255 249 249 256 275 280 287 291 288 284 308 322 333 322 315 310 306 304 311 312 312 324 332 343 347 5 8 36 91 122 160 190 203 207 210 211 212 215 214
225 225 237 238 241 245 251 260 261 270 271 276 282 279 276 283 299 312 312 312 304 291 290 293 293 293 298 303 306 315 314 315 313 295 256 183 173 183 203 208 210 211 214 214
239 238 234 236 238 248 252 253 259 265 262 270 272 274 276 282 292 299 298 294 300 288 275 266 268 276 280 286 279 279 284 287 284 274 270 248 226 200 190 200 206 210 210 210
236 236 238 239 242 249 250 250 256 260 262 266 269 269 274 279 287 289 284 282 287 293 271 261 256 253 257 266 279 278 262 258 264 262 255 249 240 227 221 216 203 204 209 208
232 232 235 236 238 239 243 247 251 251 252 260 263 266 271 278 281 281 275 274 277 285 276 270 261 260 258 263 268 273 279 263 247 246 243 244 242 238 232 222 221 223 216 212
226 227 225 224 225 228 232 234 238 241 245 250 256 263 269 273 275 274 274 272 276 271 264 264 259 256 257 251 253 263 264 261 255 250 248 244 241 238 234 230 226 227 230 228
222 223 227 231 233 234 235 238 243 246 248 251 256 262 265 265 264 263 267 279 274 265 255 257 260 253 251 249 246 251 257 257 259 253 246 243 240 240 241 242 243 240 231 230
230 222 221 223 228 236 241 242 244 248 250 254 257 258 262 266 267 268 264 261 261 260 257 256 257 253 247 246 247 250 254 253 252 255 255 252 244 242 241 241 242 244 245 244
260 226 217 219 221 220 225 232 239 244 248 253 254 257 261 263 266 272 266 256 254 259 259 258 257 255 250 245 244 247 252 251 247 249 252 250 249 248 247 244 243 244 246 245
283 262 245 234 231 239 244 247 251 252 254 260 262 265 267 269 272 271 267 264 261 257 258 257 256 254 252 254 253 246 244 249 254 252 253 255 247 246 245 243 239 238 242 244
287 278 276 276 266 259 261 260 260 262 263 263 263 265 266 267 270 273 273 269 266 264 265 261 256 253 251 248 248 251 249 246 247 252 249 249 248 246 245 243 242 238 238 240
294 292 284 280 279 280 280 279 280 280 281 281 277 273 271 270 272 272 274 274 273 272 271 266 259 254 251 249 246 245 245 250 250 246 248 252 254 250 248 246 245 242 240 237